Location: Newark
(35.7833°N, 139.8000°E)
Time: 00:50:36
(UTC+00:00)

OTV 5 (USA 277) - Pass Details

Date: 30 September 2019
Orbit: 310 x 324 km, 54.5° (Epoch: 08 October)

Event Time Altitude Azimuth Distance (km) Brightness Sun altitude
Exits shadow 20:00:06 - 236° (SW) 1,370 ? -7.9°
Reaches altitude 10° 20:00:27 10° 237° (WSW) 1,231 ? -7.9°
Maximum altitude 20:03:07 52° 316° (NW) 410 ? -7.3°
Drops below altitude 10° 20:05:48 10° 34° (NE) 1,235 ? -6.8°
Sets 20:07:49 0° 40° (NE) 2,069 ? -6.4°
